Flag for Kazakhstan Weather past 2 weeks in Astana, Kazakhstan

Now
30 °F

Light snow. More clouds than sun.


Feels Like: 24 °F
Forecast: 21 / 29 °F
Wind: 6 mph from West

Location: Astana

Current Time: Oct 24, 2014 at 5:47:38 PM

Latest Report: Oct 24, 2014 at 5:30 PM


Visibility: N/A

Pressure: 29.80 "Hg

Humidity: 93%

Dew point: 28 °F

Location of AstanaLocation

Historic Weather in Astana — Graph

°F

Astana temperature yesterday

Maximum temperature yesterday: 46 °F (at 2:30 PM)
Minimum temperature yesterday: 30 °F (at 12:00 AM)
Average temperature yesterday: 38 °F

Past Weeks' High & Low Weather Summary

 TemperatureHumidityPressure
High68 °F (Oct 19, 3:30 PM)100% (Oct 13, 6:30 AM)30.60 "Hg (Oct 13, 6:30 AM)
Low21 °F (Oct 21, 7:30 AM)19% (Oct 17, 4:00 PM)29.30 "Hg (Oct 20, 6:30 PM)
Average43 °F71%29.97 "Hg
* Reported Oct 9 4:00 PM — Oct 24 4:30 PM, Astana, Weather by CustomWeather, © 2014

Note: Actual official high and low records may vary slightly from our data, if they occured in-between our weather recording intervals... More about our weather records

Advertising

Astana weather history for previous 24 hours

 ConditionsComfort  
Time TempWeatherWind HumidityBarometerVisibility
4:30 PM
Oct 24
30 °FLight snow. More clouds than sun.8 mph100%29.77 "Hg2 mi
4:00 PM32 °FRain showers. Mostly cloudy.8 mph93%29.77 "Hg1 mi
3:30 PM32 °FRain showers. Mostly cloudy.8 mph93%29.77 "Hg1 mi
3:00 PM32 °FRain showers. Mostly cloudy.8 mph100%29.77 "Hg1 mi
2:30 PM34 °FRain showers. Mostly cloudy.6 mph93%29.77 "Hg1 mi
2:00 PM34 °FRain showers. Mostly cloudy.8 mph93%29.77 "Hg1 mi
1:30 PM34 °FRain showers. Mostly cloudy.10 mph93%29.77 "Hg2 mi
1:00 PM36 °FSprinkles. Mostly cloudy.13 mph93%29.77 "Hg6 mi
12:30 PM36 °FSprinkles. Mostly cloudy.13 mph93%29.80 "HgN/A
12:00 PM36 °FSprinkles. Mostly cloudy.10 mph93%29.80 "Hg6 mi
11:30 AM36 °FSprinkles. Mostly cloudy.13 mph93%29.80 "Hg3 mi
11:00 AM36 °FSprinkles. Mostly cloudy.10 mph93%29.80 "HgN/A
10:30 AM36 °FMore clouds than sun.13 mph87%29.80 "HgN/A
10:00 AM36 °FMore clouds than sun.8 mph93%29.80 "HgN/A
9:30 AM36 °FSprinkles. Mostly cloudy.13 mph87%29.83 "HgN/A
8:30 AM36 °FMore clouds than sun.8 mph81%29.83 "HgN/A
8:00 AM36 °FMore clouds than sun.10 mph81%29.83 "HgN/A
7:30 AM36 °FOvercast.10 mph81%29.80 "HgN/A
7:00 AM37 °FMostly cloudy.10 mph75%29.83 "HgN/A
6:30 AM37 °FPartly cloudy.10 mph81%29.80 "HgN/A
6:00 AM37 °FSprinkles. Partly cloudy.13 mph87%29.80 "HgN/A
5:30 AM41 °FSprinkles. Partly cloudy.15 mph81%29.80 "HgN/A
5:00 AM43 °FPartly cloudy.17 mph93%29.77 "HgN/A
4:30 AM43 °FSprinkles. Partly cloudy.17 mph93%29.77 "HgN/A
4:00 AM43 °FSprinkles. Partly cloudy.15 mph93%29.77 "HgN/A
3:30 AM43 °FSprinkles. Partly cloudy.17 mph93%29.77 "HgN/A
3:00 AM43 °FSprinkles. Partly cloudy.15 mph93%29.77 "HgN/A
2:30 AM43 °FSprinkles. Partly cloudy.13 mph93%29.77 "HgN/A
2:00 AM41 °FPassing clouds.15 mph93%29.77 "HgN/A
1:30 AM41 °FPassing clouds.13 mph93%29.77 "HgN/A
1:00 AM39 °FPassing clouds.10 mph93%29.80 "HgN/A
12:30 AM41 °FPassing clouds.10 mph87%29.80 "HgN/A
11:30 PM
Oct 23
45 °FPartly cloudy.15 mph81%29.77 "HgN/A
11:00 PM45 °FPartly cloudy.20 mph81%29.77 "HgN/A
10:30 PM45 °FPartly cloudy.17 mph87%29.77 "HgN/A
10:00 PM45 °FPartly cloudy.20 mph87%29.77 "HgN/A
9:30 PM45 °FPartly cloudy.17 mph87%29.77 "HgN/A
9:00 PM45 °FPartly cloudy.15 mph87%29.77 "HgN/A
8:30 PM43 °FSprinkles. Passing clouds.15 mph93%29.77 "HgN/A
8:00 PM43 °FDrizzle. Overcast.17 mph87%29.77 "HgN/A
7:30 PM45 °FDrizzle. Overcast.17 mph76%29.77 "HgN/A
7:00 PM45 °FDrizzle. Overcast.15 mph76%29.77 "HgN/A
6:30 PM45 °FOvercast.13 mph71%29.77 "HgN/A
6:00 PM45 °FOvercast.13 mph71%29.77 "HgN/A
5:30 PM45 °FOvercast.15 mph66%29.77 "HgN/A
5:00 PM46 °FOvercast.13 mph62%29.74 "HgN/A
Weather by CustomWeather, © 2014

See weather overviewHow to use our weather pages